Location: Izdebno
(52.6670°N, 16.2170°E)
Time: 15:13:00
(UTC+01:00)

Vanguard 2 - Pass Details

Date: 01 February 2023
Orbit: 553 x 2927 km, 32.9° (Epoch: 24 March)

Event Time Altitude Azimuth Distance (km) Brightness Sun altitude
Rises 21:21:23 0° 208° (SSW) 5,619 11.9 -41.6°
Reaches altitude 10° 21:25:44 10° 196° (SSW) 4,951 11.5 -42.2°
Enters shadow 21:26:06 11° 195° (SSW) 4,904 11.4 -42.2°
Maximum altitude 21:36:44 25° 149° (SSE) 4,390 - -43.6°
Drops below altitude 10° 21:49:22 10° 104° (ESE) 5,759 - -45.1°
Sets 21:54:57 0° 93° (E) 6,706 - -45.7°
